STARLINK-1172, 45074

Orbit data source: Space-Track

STARLINK-1172, 45074 is a payload satellite owned by SpaceX/Seattle (US) in LEO that was launched on Wed, 29 Jan 2020 UTC via an FALCON 9 launch vehicle from the Air Force Eastern Test Range (AFETR). Payload-class satellites include a variety of spacecraft equipped with specific instruments for various scientific and technological missions. These include communications satellites like Starlink; space stations such as the ISS; scientific satellites like the Hubble; Earth observation satellites from companies like Planet Labs, Umbra, and HawkEye 360; GPS; miniature CubeSats for education and research; and military/defense satellites.

Loading next visibility...
Identifier
45074, 2020-006AG
Orbit
LEO
Country
Flag of USUS
Related business
Manufacturer
SpaceX/Seattle
Mission
Partially operational Commercial Communications
Bus & Motor
STARLINK, Unknown motor
Mass
260 kg wet, ~248 kg dry
Launch date (UTC)
2020-01-29 (6 years ago)
Launch vehicle
FALCON 9
Launch site
Air Force Eastern Test Range (AFETR)
Object type
Payload
Rocket body
Debris
Shape & HBR
Box + 1 Pan, 10.1 m
Radar Cross Section
13.562 m², Large (>1 m²)

Expand to show TLE details & history
Last TLE update: 1 week ago

TLE from 1 week ago
0 STARLINK-1172
1 45074U 20006AG  26153.33876924  .00053968  00000-0  14252-2 0  9994
2 45074  53.1535 222.3047 0003859 322.9679  37.1058 15.37945295349861
Epoch: 2026-06-02T08:07Z
TLE epoch observation values (Epoch: 2026-06-02T08:07:49.662Z)
Latitude
-0.00003°
Longitude
-150.46542°
Altitude
450.986 km
Speed
7.644 km/s
True Right ascension
14h 49m 13s
True Declination
0° 00' 00"
Sunlit
Object was in full shadow at epoch
Visualization orbit readout
Latitude
Unknown
Longitude
Unknown
Altitude
Unknown
Speed
Unknown
Apparent Right ascension
Unknown
Apparent Declination
Unknown
Sunlit
N/A
Visualization observer readout
Local Sidereal Time
22:20:40
Azimuth
Unknown
Elevation
Unknown
Doppler factor
Unknown
Orbital elements
Apogee altitude
455.08 km
Perigee altitude
449.809 km
Semi-major axis
6,830.581 km
Eccentricity
0.00039
Inclination
53.1535°
RAAN
222.3047°
Arg. of periapsis
322.9679°
True anomaly
37.13249°
Mean anomaly
37.1058°
Eccentric anomaly
37.11914°
Mean motion
3.84465 °/min
Orbital period
93.64 mins
BSTAR
0.0014252
Loading maneuver chart data...
Computing Atmospheric mass density...

Documentation

Showing up to 5 results
|